World > North America > United States > Ohio

Millbury, Ohio Regional Weather

Lat: 41.56N, Lon: 83.43W
Wx Zone: OHZ006
Feedback

Millbury, OH Regional Weather

Expires:201909181200;;970432
ASUS41 KCLE 181112
RWRCLE
OHIO REGIONAL WEATHER ROUNDUP
NATIONAL WEATHER SERVICE WILMINGTON, OH
700 AM EDT WED SEP 18 2019

NOTE: "FAIR" INDICATES FEW OR NO CLOUDS BELOW 12,000 FEET WITH NO
SIGNIFICANT WEATHER AND/OR OBSTRUCTIONS TO VISIBILITY.


OHZ001>008-015>018-024>027-034-035-043-044-181200-
   NORTHWEST OHIO
  
CITY           SKY/WX    TMP DP  RH WIND       PRES   REMARKS
DEFIANCE       FAIR      58  55  90 NE3       30.16S                  
FINDLAY        FAIR      60  55  83 E6        30.16R                  
TOLEDO EXPRESS FAIR      58  55  90 NE3       30.17R                  
TOLEDO EXEC    FAIR      63  58  83 E5        30.18R                  
LIMA           NOT AVBL                                               
$$
 

SKY/WX - Weather  TMP - Temperature  DP - Dew Point  RH - Relative Humidity
WIND - Wind Direction/Speed PRES - Barometric Pressure VSB - Visibility
WCI - Wind Chill Index E13G22 Wind - East Wind 13 mph/Gusts of 22 mph